カタログに戻る

MAGION 2

運用中科学PO
NORAD 20281·PAYLOAD·🇨🇿 Czechia

打ち上げ Sep 28, 1989 から Plesetsk Cosmodrome

Loading…

次のパス (今後24時間)

TLE

最新Source: Space-Track

元期: Sep 14, 2026, 14:29 UTC

1 20281U 89080B   26257.60414460  .00000494  00000-0  13416-3 0  9990
2 20281  82.6036 313.8622 1172642 107.3967 265.8596 12.63119875693362

AllMySatでMAGION 2をリアルタイム追跡

Download on the App Store